Regional Weather Roundup
Issued by NWS

Home | Current Version | Previous Version | Text Only | Print | Product List | Glossary On
Versions: 1 2 3 4 5 6 7 8 9 10 11 12 13 14 15 16 17 18 19 20 21 22 23 24 25 26 27 28 29 30 31 32 33 34 35 36 37 38 39 40 41 42 43 44 45 46 47 48 49 50
000
ASUS43 KLSX 290807
RWRMO

WEATHER SUMMARY FOR MISSOURI
NATIONAL WEATHER SERVICE SPRINGFIELD MO
300 AM CDT FRI AUG 29 2014

NOTE: "FAIR" INDICATES FEW OR NO CLOUDS BELOW 12,000 FEET WITH NO
       SIGNIFICANT WEATHER AND/OR OBSTRUCTIONS TO VISIBILITY.
       CURRENT SKY AND/OR WEATHER CONDITIONS ARE NOT AVAILABLE FOR
       CHILLICOTHE AND FARMINGTON.

MOZ001>031-035>038-043-044-053-054-290900-
...NORTHERN AND WESTERN MISSOURI...

CITY           SKY/WX    TMP DP  RH WIND       PRES   REMARKS
KANSAS CTY INT PTCLDY    72  64  76 S10       29.86F
KANSAS C DTWN  PTCLDY    78  63  59 SW7       29.85F
LEE`S SUMMIT   CLEAR     73  64  73 S7        29.88F
ST JOSEPH      CLEAR     72  66  81 SE6       29.84F
CHILLICOTHE      N/A     75  72  90 SE3       29.88F
KIRKSVILLE     CLEAR     72  70  93 SE9       29.91F FOG

$$
MOZ066>068-077>081-088>096-101>105-290900-
...SOUTHWEST MISSOURI...

CITY           SKY/WX    TMP DP  RH WIND       PRES   REMARKS
SPRINGFIELD    CLEAR     73  62  68 SE10      29.93F
JOPLIN         PTCLDY    76  63  64 S8        29.90F

$$
MOZ032>034-039>042-045>050-055>058-069>072-290900-
...CENTRAL MISSOURI...

CITY           SKY/WX    TMP DP  RH WIND       PRES   REMARKS
COLUMBIA       CLEAR     73  67  81 S8        29.93S
JEFFERSON CITY CLEAR     75  66  73 E5        29.92S
ROLLA          CLEAR     72  64  76 SE9       29.94F
SEDALIA        CLEAR     71  62  73 SE6       29.91F
WHITEMAN AFB   CLEAR     71  64  76 S6        29.89F
OSAGE BEACH    CLEAR     73  63  68 S5        29.94R

$$
MOZ051-052-059>065-290900-
...EAST CENTRAL MISSOURI...

CITY           SKY/WX    TMP DP  RH WIND       PRES   REMARKS
ST LOUIS INTL  PTCLDY    76  71  85 SE8       29.97S
SPIRIT OF STL  CLEAR     71  70  96 CALM      29.95S
ST CHARLES     PTCLDY    72  71  97 E5        29.95F FOG

$$
MOZ072>076-082>087-097>100-106>115-290900-
...SOUTH CENTRAL AND SOUTHEAST MISSOURI...

CITY           SKY/WX    TMP DP  RH WIND       PRES   REMARKS
CAPE GIRARDEAU CLEAR     70  68  93 CALM      29.96F FOG
FARMINGTON     CLEAR     70  68  94 CALM      30.00S
POPLAR BLUFF   PTCLDY    72  68  87 NE3       29.95F FOG
WEST PLAINS    CLEAR     72  63  73 S3        29.99F

$$



USA.gov is the U.S. government's official web portal to all federal, state and local government web resources and services.